User: anonymous   Login
Location: Libas
(9.8833°N, 125.9833°E)
Time: 10:11:06
(UTC+00:00)
Language:

Cosmos 1606 Rocket - Orbit

View from above orbital plane
View from above orbital plane
View from above satellite
View from above satellite

Ground track
Ground track

The orbit data is extracted from the following two-line orbital elements,

1 15370U 84111B   21016.83744709  .00000080  00000-0  66445-5 0  9991
2 15370  82.5150 219.6471 0022166  57.5343 302.8011 14.83741503937261
Epoch (UTC): 16 January 2021 20:05:55
Eccentricity: 0.0022166
inclination: 82.5150°
perigee height: 602 km
apogee height: 633 km
right ascension of ascending node: 219.6471°
argument of perigee: 57.5343°
revolutions per day: 14.83741503
mean anomaly at epoch: 302.8011°
orbit number at epoch: 93726

The dashed part of the orbit path shows where the satellite is in the earth's shadow,  

DLR